This is the latest recevied weather packets stored in our database for station/object EA1EXV-11. If no packets are shown the sender has not sent any weather packets the latest 10 day(s).
| Time | Temp. | Humidity | Pressure | Rain* | Wind** | Luminosity | Snow |
|---|---|---|---|---|---|---|---|
| 1777879202 | 10° C | 84% | 1017 hPa | - | - | - | - |
| 1777878302 | 11.11° C | 84% | 1016.7 hPa | - | - | - | - |
| 1777877402 | 10° C | 85% | 1016.3 hPa | - | - | - | - |
| 1777876502 | 10° C | 84% | 1016.1 hPa | - | - | - | - |
| 1777875602 | 10° C | 85% | 1016.1 hPa | - | - | - | - |
| 1777874702 | 9.44° C | 84% | 1016 hPa | - | - | - | - |
| 1777873802 | 8.89° C | 84% | 1016 hPa | - | - | - | - |
| 1777872902 | 8.33° C | 84% | 1015.7 hPa | - | - | - | - |
| 1777872001 | 8.33° C | 84% | 1015.8 hPa | - | - | - | - |
| 1777871101 | 8.33° C | 84% | 1015.9 hPa | - | - | - | - |
| 1777870201 | 8.33° C | 84% | 1016 hPa | - | - | - | - |
| 1777869301 | 8.33° C | 83% | 1016 hPa | - | - | - | - |
| 1777868401 | 8.33° C | 83% | 1016 hPa | - | - | - | - |
| 1777867501 | 8.33° C | 83% | 1016.1 hPa | - | - | - | - |
| 1777866601 | 8.33° C | 83% | 1016.1 hPa | - | - | - | - |
| 1777865701 | 8.33° C | 83% | 1016.1 hPa | - | - | - | - |
| 1777864801 | 8.33° C | 82% | 1016.1 hPa | - | - | - | - |
| 1777863901 | 8.33° C | 82% | 1016.1 hPa | - | - | - | - |
| 1777863001 | 7.78° C | 82% | 1016.2 hPa | - | - | - | - |
| 1777862100 | 7.78° C | 82% | 1016.1 hPa | - | - | - | - |
| 1777861200 | 7.78° C | 82% | 1016.1 hPa | - | - | - | - |
| 1777860300 | 7.22° C | 82% | 1016.1 hPa | - | - | - | - |
| 1777859400 | 7.22° C | 82% | 1016.2 hPa | - | - | - | - |
| 1777858500 | 7.22° C | 81% | 1016.2 hPa | - | - | - | - |
| 1777857600 | 7.22° C | 81% | 1016.2 hPa | - | - | - | - |
* Rain since midnight (hover to see other rain measurements)
** Current wind speed in m/s (hover to see current wind gust speed)